Temperature
26 27 27 27 27 28 27 27 27 27 27 26 26 26 25 24 23 23 22 21 20 20 19 18 17 17 17 17 17 17 17 17 17 16 16 16 15 15 15 15 15 14 14 14
27 27 27 27 27 27 27 27 26 26 26 26 26 25 26 25 24 23 22 21 20 20 19 18 17 17 17 17 17 17 17 16 16 16 15 15 15 15 15 14 14 14 14 14
27 27 27 27 27 26 27 27 26 26 26 26 25 25 25 25 24 23 22 21 21 20 19 18 17 17 16 16 16 16 16 16 16 15 15 14 14 14 14 14 14 14 14 13
27 27 26 27 27 26 26 27 26 26 25 26 25 25 25 25 24 24 22 21 21 20 19 18 17 17 16 16 16 16 16 16 15 15 15 14 14 14 14 13 13 13 13 13
27 27 26 26 26 26 26 26 26 26 26 25 26 25 26 25 24 24 23 21 20 19 19 18 17 17 16 16 15 15 15 15 15 14 14 14 14 14 13 13 13 13 13 13
27 27 27 26 26 26 26 26 26 26 26 25 25 25 25 25 24 24 23 21 20 19 18 18 17 16 16 15 15 15 14 14 14 14 14 14 13 13 13 13 13 12 12 12
26 27 27 26 26 26 26 25 25 25 25 25 25 25 25 24 24 23 22 21 20 19 18 17 17 16 15 15 15 15 14 14 14 13 13 13 13 13 12 12 12 12 12 12
25 25 26 26 25 25 25 25 24 23 24 24 25 25 25 24 23 22 21 20 19 19 18 17 16 16 15 15 14 14 14 14 13 13 13 13 13 12 12 12 12 12 12 11
24 24 25 25 25 25 25 25 25 24 24 24 24 25 24 22 22 22 21 20 19 18 17 17 16 15 15 14 14 14 13 13 13 13 13 12 12 12 12 12 12 11 11 11
24 23 25 25 25 25 25 25 24 24 22 22 23 24 24 23 22 22 21 20 19 18 17 16 16 15 15 14 13 13 13 13 13 13 12 12 12 12 12 11 11 11 11 11
23 22 23 24 24 24 24 24 24 24 24 22 22 23 24 23 22 22 21 20 18 17 17 16 15 15 14 14 13 13 13 13 12 12 12 12 12 12 11 11 11 11 11 11
22 22 22 23 24 24 24 23 23 22 22 23 23 23 23 22 22 21 20 19 18 17 16 15 15 15 14 14 13 13 13 12 12 12 12 12 11 11 11 11 11 11 10 10
21 21 21 22 23 23 23 23 23 22 22 22 22 22 22 22 21 20 19 18 17 16 16 15 15 14 14 13 13 13 13 12 12 12 12 11 11 11 11 11 10 10 10 10
20 20 21 21 21 22 22 22 23 22 22 22 22 22 22 21 21 20 19 18 17 16 15 15 14 14 13 13 13 13 12 12 12 11 11 11 11 11 11 10 10 10 10 10
20 20 21 21 22 22 22 22 22 22 22 21 22 22 21 20 20 19 18 17 16 16 15 14 14 13 13 13 12 12 12 12 11 11 11 11 11 10 10 10 10 10 10 10
19 19 20 21 21 22 21 21 21 21 21 21 21 21 20 19 18 17 17 16 16 15 15 14 13 13 12 12 12 12 12 11 11 11 11 11 11 10 10 10 10 10 10 10
19 19 19 20 21 21 20 21 21 21 21 21 20 20 20 19 18 17 16 15 15 15 14 14 13 13 12 12 12 12 12 11 11 11 11 11 10 10 10 10 10 10 10 10
18 18 19 20 20 19 20 21 20 20 20 20 19 19 18 18 16 16 15 15 14 14 14 13 13 12 12 12 12 12 11 11 11 11 11 11 11 10 10 10 10 10 10 10
18 18 19 19 19 20 20 20 20 19 19 19 18 18 17 17 17 16 15 14 13 13 13 13 12 12 12 12 12 12 11 11 11 11 11 11 10 10 10 10 10 10 10 10
19 18 18 19 18 18 19 19 19 19 19 18 17 17 17 16 18 17 14 13 13 13 12 12 12 12 12 11 11 11 11 11 11 11 11 11 10 10 10 10 10 10 10 10
18 18 18 18 18 19 18 18 18 18 17 16 16 16 16 16 16 14 13 13 12 12 12 12 12 12 12 11 11 11 11 11 11 11 11 10 10 10 10 10 10 10 10 10
18 18 18 18 18 18 17 17 17 16 16 15 15 15 15 14 14 13 13 12 12 12 12 12 12 11 11 11 11 11 11 11 11 11 11 10 10 10 10 10 10 10 10 10
18 18 18 18 18 17 16 16 16 15 15 15 15 14 14 14 13 13 12 12 12 12 12 11 11 11 11 11 11 11 11 11 11 11 11 10 10 10 10 10 10 10 10 11
18 17 17 17 18 17 16 15 15 14 14 14 14 14 14 13 13 13 12 12 11 11 11 11 11 11 11 11 11 11 11 11 11 11 10 10 10 10 10 10 10 11 11 11
16 16 16 16 17 16 16 15 14 14 14 14 13 13 13 13 13 13 12 12 11 11 11 11 11 11 11 11 11 11 11 11 11 11 11 11 11 11 10 10 10 10 10 10
16 16 15 16 16 15 15 14 14 13 13 13 13 13 13 13 13 12 12 12 11 11 11 11 11 11 11 11 11 11 11 11 11 11 11 11 11 11 11 11 11 11 10 10
Wind_Speed
4 5 3 2 4 4 4 5 5 3 2 4 5 6 5 3 4 4 3 3 3 3 3 3 4 4 4 4 3 3 3 3 2 2 3 3 2 2 1 1 1 2 3 3
5 3 1 2 2 4 5 6 4 3 2 5 6 7 5 4 4 4 3 4 3 3 3 3 4 5 4 4 4 4 4 3 3 2 2 2 1 1 1 1 1 1 2 2
3 1 1 3 4 5 6 6 6 5 5 7 7 8 5 4 4 3 3 3 3 3 3 4 4 5 5 5 5 4 3 3 2 2 2 1 1 1 1 0 0 1 1 1
2 0 3 4 4 5 6 4 5 7 9 7 7 9 4 4 4 4 4 4 3 3 3 4 5 5 5 5 4 4 4 3 3 3 2 2 2 2 1 1 0 0 1 1
1 1 3 4 4 5 5 4 6 8 9 9 8 9 5 4 6 4 2 2 3 3 3 4 4 4 4 4 4 4 4 3 3 3 3 3 2 0 0 0 1 1 1 1
3 3 3 4 3 2 2 5 7 9 9 10 7 8 6 3 3 3 1 1 2 3 3 3 4 4 3 3 3 3 4 4 3 3 2 2 1 1 1 0 0 1 1 2
3 2 2 1 4 3 4 7 7 7 7 7 4 7 4 2 3 3 2 1 1 2 3 3 4 4 3 3 3 4 4 3 3 2 2 1 1 2 1 0 1 2 2 2
5 3 2 3 5 6 6 8 7 8 8 8 7 6 2 2 2 2 1 0 0 1 2 2 3 4 4 3 3 3 3 3 3 3 2 1 1 1 0 1 2 2 3 3
5 5 4 5 5 7 6 6 7 9 11 10 6 5 2 1 1 1 1 1 1 1 0 1 2 3 3 3 3 3 3 3 3 3 2 1 1 1 1 1 3 3 3 2
5 7 6 5 6 4 6 7 6 7 7 9 8 7 4 2 3 2 2 1 1 1 1 1 1 2 3 3 3 3 3 3 2 2 2 1 1 0 1 2 3 3 3 2
6 6 7 6 7 8 6 5 7 8 8 8 9 5 4 4 4 5 4 3 2 2 1 0 1 2 3 3 3 3 3 3 2 2 2 1 0 0 1 2 3 3 3 3
5 6 8 9 6 5 5 6 7 8 8 9 10 6 3 4 5 5 5 4 2 2 1 0 1 1 2 2 2 3 3 3 2 2 2 1 1 1 1 2 2 3 3 3
5 5 8 6 3 3 5 6 7 9 9 10 11 5 2 4 6 5 5 4 2 2 1 1 1 2 2 2 2 2 3 3 2 2 2 1 1 1 2 2 2 3 3 3
5 6 8 10 10 10 10 9 9 10 10 11 11 11 8 8 7 6 5 3 2 2 1 1 1 2 2 2 2 3 3 2 2 2 1 1 1 2 2 2 2 3 3 3
5 8 9 11 11 12 12 12 10 10 11 11 11 11 9 8 7 5 4 3 3 2 2 1 1 1 1 2 3 3 3 2 2 2 1 1 1 1 1 1 2 2 3 4
5 6 9 10 10 10 11 10 10 9 9 9 10 8 7 6 5 4 4 3 3 3 3 2 1 1 2 2 3 3 3 2 2 2 1 0 1 1 1 1 2 2 3 4
5 5 8 8 8 10 6 4 5 6 6 8 8 7 7 6 6 5 4 4 4 4 3 2 1 2 2 2 3 3 3 3 2 1 1 1 1 1 1 2 2 3 3 3
6 7 6 7 8 6 2 5 6 6 4 5 6 7 7 6 5 3 3 4 5 5 3 2 2 2 2 2 2 3 3 3 2 1 1 1 1 1 1 2 2 3 3 3
6 6 5 5 7 7 2 5 7 7 6 5 7 7 6 6 4 2 4 4 5 4 2 2 1 1 2 1 2 3 2 2 2 1 1 1 1 1 1 2 3 3 3 3
3 6 6 6 8 5 5 7 9 8 5 7 8 8 7 7 6 4 4 5 4 3 2 1 1 1 2 1 2 2 2 2 1 1 1 1 0 1 1 2 3 3 3 3
4 5 7 8 8 4 6 8 7 5 6 9 10 9 7 6 7 5 4 3 2 2 2 0 0 1 1 2 2 3 2 2 1 1 1 1 0 1 1 2 3 3 3 3
6 5 6 6 6 3 7 7 6 8 9 9 9 7 6 5 5 4 3 2 2 2 1 0 1 1 1 2 3 3 2 1 1 1 1 1 0 1 1 2 3 3 3 3
4 5 6 5 6 6 8 8 9 9 9 8 8 7 4 4 4 4 2 2 2 2 1 1 1 1 1 2 2 2 2 2 2 2 1 1 0 1 1 2 2 3 3 4
5 5 7 8 8 9 9 8 9 9 8 8 7 6 4 4 4 3 2 2 2 2 1 1 1 1 2 2 2 2 2 2 2 2 1 1 1 0 1 1 2 3 4 4
9 6 8 10 10 9 6 8 10 10 8 7 6 5 4 4 3 3 2 2 2 2 1 1 2 2 2 2 2 2 3 3 3 2 2 1 1 0 1 2 3 4 4 4
7 7 8 9 9 10 12 11 11 10 8 7 6 5 4 4 4 3 2 2 2 2 2 2 2 2 2 2 2 2 3 4 4 3 2 1 1 1 2 2 2 1 3 3
Wind_Direction
215 226 227 256 287 309 284 273 273 273 268 267 271 271 272 253 233 222 204 206 207 202 186 165 168 172 164 159 163 166 173 173 194 207 214 211 212 224 230 229 232 252 254 242
214 216 273 279 271 265 260 262 267 270 246 273 277 271 258 238 239 231 224 221 217 214 188 171 176 175 174 173 177 172 174 177 196 200 211 225 234 252 242 245 209 266 262 248
273 359 337 270 261 264 263 268 280 285 280 249 263 265 236 215 218 217 225 225 223 219 207 185 181 182 184 184 187 178 170 169 181 189 193 182 189 220 231 247 256 307 274 263
276 336 262 265 274 284 279 293 282 271 270 275 272 283 252 219 222 227 227 224 222 215 207 189 184 184 192 193 183 169 162 164 168 179 185 191 216 229 261 272 70 254 221 239
284 307 283 288 314 304 313 312 279 272 273 275 263 275 275 226 247 249 226 220 216 211 206 189 179 175 177 179 172 164 162 170 176 178 179 206 229 208 96 37 68 271 229 233
284 271 288 316 316 288 287 274 263 251 257 264 275 281 279 271 294 299 267 246 231 222 211 194 166 154 158 161 162 164 171 177 178 179 181 201 188 145 112 75 328 269 262 259
265 235 199 287 300 254 274 285 281 267 261 274 282 275 286 1 349 321 294 283 249 227 217 200 180 165 156 161 167 173 172 170 170 177 179 182 179 176 171 260 283 289 288 280
292 283 327 323 308 298 283 283 294 295 295 300 279 268 314 36 7 345 345 96 163 242 230 200 183 174 171 166 171 172 166 163 160 159 153 146 164 186 98 317 301 288 293 300
322 310 327 318 304 289 284 285 311 291 285 282 277 271 253 171 291 352 24 60 51 20 239 195 176 174 172 171 169 168 158 155 156 146 141 142 148 2 0 313 281 288 297 296
318 300 299 300 274 264 297 302 288 280 290 291 286 281 298 302 309 294 282 307 340 8 30 179 179 176 176 179 170 163 158 158 161 154 157 156 148 64 328 312 302 300 302 309
317 289 291 286 286 304 293 277 287 288 285 290 294 305 11 346 316 303 291 293 299 312 311 286 195 185 186 183 171 170 170 166 154 150 156 172 186 237 306 304 300 302 304 302
333 296 290 289 291 292 286 295 299 294 290 283 287 298 17 352 332 319 315 307 302 289 285 291 216 189 198 196 189 178 179 176 168 164 161 156 255 289 302 307 301 302 300 300
323 292 289 280 240 233 288 299 294 288 283 279 279 286 29 336 325 323 321 315 297 273 273 258 220 206 202 202 202 193 189 178 173 162 159 171 249 286 296 304 305 304 303 305
296 274 278 288 302 308 300 297 292 279 278 281 286 298 317 328 326 326 324 311 286 260 262 252 223 217 200 200 205 197 188 172 174 170 170 192 255 280 279 289 302 306 303 300
302 276 280 284 290 290 290 291 291 284 284 286 296 303 324 331 326 325 323 312 296 276 270 249 231 213 200 201 197 183 171 164 178 184 178 214 266 276 271 292 298 298 298 298
304 285 289 284 283 286 288 289 286 285 287 286 292 305 347 344 336 335 331 319 306 291 275 249 229 224 208 209 195 172 163 167 180 190 213 226 254 285 295 304 310 313 317 319
280 278 289 288 300 288 277 307 300 293 298 303 312 332 340 332 328 325 326 317 316 313 293 258 237 236 225 211 192 174 167 172 185 195 215 212 249 310 313 318 333 330 327 328
266 280 278 289 297 278 1 2 330 309 329 338 333 333 335 336 326 324 340 331 321 313 301 282 256 246 226 195 182 174 166 170 183 193 201 204 223 296 325 323 332 329 325 327
238 263 282 282 285 284 301 357 338 311 311 355 342 341 344 341 317 329 2 341 323 316 313 296 260 232 203 184 183 166 160 166 183 188 199 196 228 305 314 324 334 331 330 334
227 246 265 280 289 295 350 353 332 296 282 19 351 336 333 325 315 340 345 325 329 345 349 326 189 165 173 176 181 175 171 172 192 221 205 191 235 285 306 327 322 328 325 324
287 271 266 280 282 287 12 353 331 307 339 340 329 323 316 316 332 339 326 328 345 358 5 11 175 159 167 178 187 186 182 169 188 215 176 171 221 294 317 327 321 314 312 323
289 286 282 284 278 302 12 349 339 325 321 318 316 316 313 320 335 339 337 339 339 355 1 324 196 183 178 183 192 191 187 171 167 175 181 179 190 312 347 334 327 324 319 310
272 294 298 286 291 320 320 316 320 320 314 315 312 311 300 299 311 323 331 328 325 339 350 270 212 197 192 188 194 199 185 171 164 167 172 168 242 327 337 324 328 323 319 327
271 285 279 280 283 303 308 315 325 324 317 317 313 305 289 285 294 304 312 315 314 308 296 259 221 198 192 184 187 197 179 173 173 173 175 194 218 301 9 320 330 333 337 341
284 279 274 275 291 304 306 324 327 324 320 318 313 304 292 279 284 289 292 291 288 270 257 245 229 221 210 185 187 189 174 175 177 178 187 207 220 333 326 330 331 331 342 342
262 269 278 289 306 303 302 308 312 312 309 308 304 300 289 270 274 273 270 268 259 250 236 228 226 229 222 200 193 188 181 182 185 191 202 229 246 285 305 314 320 264 261 252
Height
1507 1503 1501 1501 1499 1498 1499 1500 1501 1499 1498 1500 1500 1501 1500 1503 1504 1505 1506 1508 1509 1510 1511 1513 1513 1514 1515 1516 1517 1517 1518 1519 1519 1520 1520 1520 1520 1520 1520 1519 1519 1519 1519 1518
1503 1502 1501 1501 1501 1501 1500 1501 1500 1499 1499 1500 1500 1499 1498 1501 1502 1504 1505 1506 1508 1509 1510 1512 1512 1512 1513 1514 1515 1516 1517 1517 1517 1518 1518 1518 1518 1518 1517 1517 1516 1516 1516 1516
1503 1502 1502 1502 1500 1501 1499 1500 1500 1501 1498 1497 1499 1499 1495 1498 1501 1503 1504 1505 1506 1508 1509 1510 1511 1511 1512 1512 1513 1514 1514 1515 1516 1516 1516 1516 1516 1515 1515 1515 1514 1514 1514 1513
1501 1501 1502 1501 1500 1500 1500 1496 1498 1500 1500 1497 1499 1503 1495 1494 1497 1499 1502 1503 1504 1506 1507 1508 1509 1509 1510 1511 1512 1512 1512 1513 1514 1514 1514 1515 1514 1514 1513 1513 1513 1512 1512 1511
1501 1501 1502 1501 1500 1500 1499 1497 1498 1497 1497 1498 1494 1499 1493 1491 1494 1496 1499 1501 1503 1504 1505 1506 1507 1508 1509 1509 1510 1510 1510 1511 1511 1512 1512 1513 1513 1513 1512 1511 1511 1511 1510 1509
1501 1502 1501 1501 1501 1500 1499 1498 1496 1494 1492 1503 1495 1499 1496 1489 1493 1495 1498 1500 1502 1503 1504 1505 1506 1506 1507 1508 1508 1508 1509 1509 1510 1510 1510 1510 1510 1510 1510 1509 1509 1509 1509 1508
1502 1499 1500 1502 1501 1499 1499 1502 1505 1504 1502 1499 1491 1496 1494 1491 1493 1496 1498 1500 1501 1502 1503 1503 1504 1505 1505 1506 1506 1507 1507 1507 1508 1509 1509 1509 1508 1508 1508 1508 1508 1507 1507 1506
1508 1506 1499 1500 1502 1502 1499 1500 1510 1516 1509 1499 1493 1493 1490 1492 1495 1497 1499 1500 1501 1502 1502 1502 1503 1504 1504 1504 1505 1505 1506 1506 1506 1507 1507 1507 1506 1507 1507 1506 1506 1506 1505 1505
1511 1509 1501 1502 1502 1500 1499 1496 1496 1503 1500 1502 1493 1488 1488 1493 1495 1497 1498 1499 1500 1501 1501 1502 1502 1503 1503 1503 1503 1504 1504 1505 1505 1505 1506 1506 1506 1505 1505 1504 1504 1504 1503 1502
1511 1515 1504 1502 1501 1499 1499 1498 1500 1502 1511 1510 1498 1491 1490 1490 1493 1495 1497 1498 1500 1501 1501 1501 1501 1502 1502 1502 1503 1503 1503 1504 1504 1504 1504 1505 1504 1504 1504 1503 1503 1502 1501 1500
1513 1516 1508 1503 1502 1501 1501 1501 1499 1497 1497 1507 1508 1497 1486 1489 1491 1493 1495 1497 1499 1500 1500 1500 1501 1501 1501 1501 1502 1502 1502 1503 1503 1503 1503 1503 1503 1503 1502 1501 1501 1500 1499 1498
1516 1514 1512 1504 1499 1499 1500 1500 1501 1508 1504 1498 1500 1498 1489 1491 1493 1494 1495 1497 1498 1500 1500 1500 1500 1500 1500 1500 1501 1501 1501 1501 1502 1502 1502 1502 1502 1501 1501 1500 1499 1498 1498 1496
1519 1519 1518 1508 1504 1500 1500 1499 1500 1501 1502 1501 1501 1497 1490 1492 1493 1494 1496 1497 1499 1499 1499 1499 1499 1499 1499 1499 1499 1500 1500 1500 1500 1501 1501 1501 1501 1500 1499 1498 1498 1497 1496 1495
1522 1518 1519 1519 1511 1503 1503 1501 1498 1499 1500 1499 1495 1492 1490 1492 1493 1495 1496 1497 1498 1498 1498 1498 1498 1498 1497 1498 1498 1498 1499 1499 1499 1499 1499 1499 1499 1499 1498 1497 1497 1496 1495 1493
1521 1516 1512 1508 1504 1503 1502 1500 1498 1497 1496 1497 1493 1492 1492 1493 1495 1496 1496 1497 1497 1497 1497 1497 1497 1497 1496 1496 1496 1497 1497 1497 1498 1498 1498 1498 1498 1497 1497 1496 1495 1494 1493 1492
1521 1518 1513 1509 1503 1501 1501 1499 1497 1496 1495 1493 1492 1492 1494 1496 1496 1496 1497 1496 1496 1496 1496 1496 1496 1495 1495 1495 1495 1495 1495 1496 1497 1497 1497 1497 1497 1496 1496 1495 1494 1493 1492 1490
1519 1519 1516 1509 1501 1500 1501 1498 1497 1496 1494 1494 1494 1495 1495 1496 1496 1497 1497 1496 1496 1496 1495 1495 1495 1494 1494 1494 1494 1494 1494 1495 1496 1496 1496 1496 1496 1496 1495 1494 1493 1492 1490 1489
1522 1519 1515 1508 1507 1511 1501 1496 1497 1496 1496 1496 1497 1497 1497 1497 1497 1497 1496 1495 1495 1494 1494 1494 1494 1493 1493 1493 1493 1493 1494 1494 1495 1495 1495 1495 1495 1495 1494 1494 1493 1491 1490 1488
1520 1519 1515 1510 1508 1503 1498 1498 1498 1498 1497 1497 1497 1497 1497 1497 1495 1494 1495 1495 1494 1493 1493 1493 1493 1492 1492 1492 1492 1493 1493 1494 1494 1495 1495 1495 1494 1494 1493 1493 1492 1490 1489 1487
1517 1517 1515 1511 1513 1510 1503 1500 1499 1498 1496 1498 1498 1498 1497 1496 1492 1492 1495 1494 1493 1492 1492 1492 1492 1491 1491 1491 1492 1492 1493 1493 1494 1494 1494 1494 1493 1493 1493 1492 1491 1490 1489 1487
1515 1514 1513 1511 1511 1503 1503 1502 1500 1502 1503 1501 1500 1499 1498 1497 1496 1496 1494 1493 1493 1492 1491 1491 1491 1491 1491 1491 1491 1491 1492 1493 1493 1493 1493 1493 1493 1493 1492 1491 1490 1489 1488 1487
1516 1514 1512 1511 1511 1509 1505 1504 1505 1506 1504 1502 1500 1499 1498 1497 1496 1495 1494 1493 1492 1491 1491 1490 1490 1490 1490 1490 1490 1491 1492 1492 1492 1493 1493 1493 1493 1493 1493 1491 1490 1489 1488 1487
1515 1515 1513 1512 1510 1508 1507 1507 1507 1505 1503 1501 1499 1498 1498 1497 1496 1495 1494 1493 1492 1491 1491 1491 1490 1490 1490 1490 1491 1491 1492 1492 1492 1493 1493 1493 1493 1493 1492 1491 1490 1489 1488 1487
1514 1516 1515 1511 1506 1507 1507 1506 1505 1504 1502 1500 1498 1497 1497 1496 1495 1494 1493 1493 1492 1491 1491 1490 1490 1490 1490 1490 1490 1491 1491 1492 1492 1493 1493 1493 1493 1492 1492 1491 1490 1489 1488 1487
1516 1515 1512 1510 1507 1506 1504 1505 1504 1502 1500 1499 1497 1496 1496 1495 1494 1493 1493 1492 1492 1491 1490 1490 1490 1490 1490 1490 1490 1490 1491 1491 1492 1492 1493 1493 1493 1492 1492 1491 1490 1489 1488 1486
1514 1514 1512 1508 1507 1507 1504 1503 1502 1500 1498 1497 1496 1494 1494 1494 1493 1492 1492 1491 1491 1490 1490 1490 1490 1490 1490 1490 1490 1490 1490 1491 1491 1492 1492 1492 1492 1492 1491 1490 1489 1488 1486 1484